Time,TemperatureF,DewpointF,PressureIn,WindDirection,WindDirectionDegrees,WindSpeedMPH,WindSpeedGustMPH,Humidity,HourlyPrecipIn,Conditions,Clouds,dailyrainin,SoftwareType,DateUTC
2013-06-13 00:02:00,67.0,60.0,29.81,WNW,289,11.0,20.0,78,0.00,,,0.02,,2013-06-13 05:02:00,
2013-06-13 00:12:00,67.0,60.0,29.81,WNW,289,11.0,20.0,78,0.00,,,0.02,,2013-06-13 05:12:00,
2013-06-13 00:24:00,67.0,60.0,29.82,WNW,300,9.0,26.0,78,0.00,,,0.02,,2013-06-13 05:24:00,
2013-06-13 00:33:00,67.0,60.0,29.83,WNW,301,13.0,21.0,77,0.00,,,0.02,,2013-06-13 05:33:00,
2013-06-13 00:43:00,67.0,60.0,29.83,NW,314,6.0,22.0,78,0.00,,,0.02,,2013-06-13 05:43:00,
2013-06-13 00:53:00,67.0,60.0,29.83,NW,314,6.0,22.0,78,0.00,,,0.02,,2013-06-13 05:53:00,
2013-06-13 01:02:00,67.0,60.0,29.84,NW,321,7.0,17.0,78,0.00,,,0.02,,2013-06-13 06:02:00,
2013-06-13 01:11:00,67.0,60.0,29.84,WNW,303,7.0,17.0,78,0.00,,,0.02,,2013-06-13 06:11:00,
2013-06-13 01:22:00,67.0,60.0,29.85,NW,324,6.0,17.0,78,0.00,,,0.02,,2013-06-13 06:22:00,
2013-06-13 01:33:00,67.0,60.0,29.85,NW,324,6.0,17.0,78,0.00,,,0.02,,2013-06-13 06:33:00,
2013-06-13 01:44:00,67.0,60.0,29.86,NW,306,8.0,17.0,78,0.00,,,0.02,,2013-06-13 06:44:00,
2013-06-13 01:52:00,68.0,61.0,29.87,NW,317,5.0,15.0,78,0.00,,,0.02,,2013-06-13 06:52:00,
2013-06-13 02:01:00,68.0,61.0,29.88,NW,318,5.0,15.0,78,0.00,,,0.02,,2013-06-13 07:01:00,
2013-06-13 02:11:00,68.0,61.0,29.88,NW,322,5.0,17.0,77,0.00,,,0.02,,2013-06-13 07:11:00,
2013-06-13 02:22:00,68.0,61.0,29.88,NW,321,7.0,13.0,77,0.00,,,0.02,,2013-06-13 07:22:00,
2013-06-13 02:33:00,68.0,61.0,29.88,NW,318,5.0,15.0,77,0.00,,,0.02,,2013-06-13 07:33:00,
2013-06-13 02:42:00,68.0,61.0,29.88,NW,317,5.0,15.0,77,0.00,,,0.02,,2013-06-13 07:42:00,
2013-06-13 02:52:00,67.0,60.0,29.88,NW,316,5.0,12.0,77,0.00,,,0.02,,2013-06-13 07:52:00,
2013-06-13 03:01:00,67.0,60.0,29.88,NW,311,4.0,12.0,77,0.00,,,0.02,,2013-06-13 08:01:00,
2013-06-13 03:11:00,67.0,60.0,29.89,NW,317,6.0,10.0,77,0.00,,,0.02,,2013-06-13 08:11:00,
2013-06-13 03:22:00,67.0,60.0,29.89,NW,317,6.0,10.0,77,0.00,,,0.02,,2013-06-13 08:22:00,
2013-06-13 03:32:00,66.0,59.0,29.89,NW,310,4.0,10.0,78,0.00,,,0.02,,2013-06-13 08:32:00,
2013-06-13 03:43:00,65.0,58.0,29.90,NW,315,5.0,9.0,78,0.00,,,0.02,,2013-06-13 08:43:00,
2013-06-13 03:52:00,65.0,58.0,29.91,NW,313,3.0,10.0,78,0.00,,,0.02,,2013-06-13 08:52:00,
2013-06-13 04:02:00,65.0,58.0,29.91,NW,304,3.0,8.0,78,0.00,,,0.02,,2013-06-13 09:02:00,
2013-06-13 04:11:00,65.0,58.0,29.91,NW,310,3.0,8.0,78,0.00,,,0.02,,2013-06-13 09:11:00,
2013-06-13 04:22:00,64.0,57.0,29.91,WNW,302,3.0,7.0,78,0.00,,,0.02,,2013-06-13 09:22:00,
2013-06-13 04:32:00,64.0,57.0,29.92,NW,306,3.0,6.0,79,0.00,,,0.02,,2013-06-13 09:32:00,
2013-06-13 04:42:00,64.0,57.0,29.92,NW,304,4.0,7.0,79,0.00,,,0.02,,2013-06-13 09:42:00,
2013-06-13 04:52:00,64.0,58.0,29.92,NW,312,2.0,7.0,80,0.00,,,0.02,,2013-06-13 09:52:00,
2013-06-13 05:01:00,63.0,57.0,29.91,NW,319,2.0,8.0,80,0.00,,,0.02,,2013-06-13 10:01:00,
2013-06-13 05:11:00,63.0,57.0,29.92,NW,315,2.0,6.0,80,0.00,,,0.02,,2013-06-13 10:11:00,
2013-06-13 05:22:00,63.0,57.0,29.93,NW,321,2.0,10.0,80,0.00,,,0.02,,2013-06-13 10:22:00,
2013-06-13 05:33:00,63.0,57.0,29.93,NW,310,2.0,5.0,80,0.00,,,0.02,,2013-06-13 10:33:00,
2013-06-13 05:43:00,63.0,57.0,29.95,NW,311,3.0,6.0,81,0.00,,,0.02,,2013-06-13 10:43:00,
2013-06-13 05:53:00,63.0,57.0,29.95,NW,311,3.0,6.0,81,0.00,,,0.02,,2013-06-13 10:53:00,
2013-06-13 06:02:00,63.0,57.0,29.95,NW,316,1.0,6.0,81,0.00,,,0.02,,2013-06-13 11:02:00,
2013-06-13 06:11:00,62.0,56.0,29.96,WNW,297,2.0,4.0,82,0.00,,,0.02,,2013-06-13 11:11:00,
2013-06-13 06:23:00,62.0,56.0,29.96,WNW,297,2.0,4.0,82,0.00,,,0.02,,2013-06-13 11:23:00,
2013-06-13 06:32:00,62.0,56.0,29.96,WNW,297,2.0,4.0,82,0.00,,,0.02,,2013-06-13 11:32:00,
2013-06-13 06:42:00,62.0,56.0,29.97,WNW,286,2.0,5.0,82,0.00,,,0.02,,2013-06-13 11:42:00,
2013-06-13 06:50:00,63.0,57.0,29.98,NW,304,2.0,5.0,82,0.00,,,0.01,,2013-06-13 11:50:00,
2013-06-13 06:52:00,62.0,56.0,29.97,WNW,286,2.0,5.0,82,0.00,,,0.02,,2013-06-13 11:52:00,
2013-06-13 07:01:00,63.0,57.0,29.97,WNW,297,2.0,4.0,82,0.00,,,0.01,,2013-06-13 12:01:00,
2013-06-13 07:11:00,63.0,57.0,29.98,NW,304,2.0,5.0,82,0.00,,,0.01,,2013-06-13 12:11:00,
2013-06-13 07:22:00,63.0,57.0,29.98,NW,304,2.0,5.0,82,0.00,,,0.01,,2013-06-13 12:22:00,
2013-06-13 07:35:00,63.0,57.0,29.98,NW,304,2.0,5.0,82,0.00,,,0.01,,2013-06-13 12:35:00,
2013-06-13 07:42:00,63.0,57.0,29.98,NW,304,2.0,5.0,82,0.00,,,0.01,,2013-06-13 12:42:00,
2013-06-13 08:11:00,67.0,59.0,30.00,NW,305,3.0,7.0,75,0.00,,,0.00,,2013-06-13 13:11:00,
2013-06-13 08:22:00,67.0,59.0,30.01,NW,318,2.0,8.0,75,0.00,,,0.00,,2013-06-13 13:22:00,
2013-06-13 08:32:00,68.0,59.0,30.01,NNW,348,2.0,5.0,74,0.00,,,0.00,,2013-06-13 13:32:00,
2013-06-13 08:43:00,68.0,59.0,30.01,NW,316,4.0,9.0,72,0.00,,,0.00,,2013-06-13 13:43:00,
2013-06-13 08:53:00,69.0,60.0,30.01,NW,313,3.0,8.0,72,0.00,,,0.00,,2013-06-13 13:53:00,
2013-06-13 09:02:00,69.0,60.0,30.01,NW,313,3.0,8.0,72,0.00,,,0.00,,2013-06-13 14:02:00,
2013-06-13 09:11:00,70.0,60.0,30.02,NW,309,2.0,7.0,70,0.00,,,0.00,,2013-06-13 14:11:00,
2013-06-13 09:22:00,71.0,61.0,30.02,NNW,344,1.0,6.0,70,0.00,,,0.00,,2013-06-13 14:22:00,
2013-06-13 09:33:00,72.0,61.0,30.02,NW,307,1.0,5.0,68,0.00,,,0.00,,2013-06-13 14:33:00,
2013-06-13 09:43:00,72.0,61.0,30.02,WNW,299,2.0,6.0,69,0.00,,,0.00,,2013-06-13 14:43:00,
2013-06-13 09:53:00,73.0,62.0,30.02,NW,306,2.0,6.0,68,0.00,,,0.00,,2013-06-13 14:53:00,
2013-06-13 10:01:00,73.0,61.0,30.02,WNW,297,3.0,7.0,67,0.00,,,0.00,,2013-06-13 15:01:00,
2013-06-13 10:12:00,73.0,61.0,30.02,WNW,301,2.0,7.0,67,0.00,,,0.00,,2013-06-13 15:12:00,
2013-06-13 10:22:00,75.0,63.0,30.02,North,1,1.0,5.0,66,0.00,,,0.00,,2013-06-13 15:22:00,
2013-06-13 10:33:00,75.0,64.0,30.02,NW,314,2.0,6.0,68,0.00,,,0.00,,2013-06-13 15:33:00,
2013-06-13 10:43:00,75.0,61.0,30.02,WNW,298,3.0,5.0,62,0.00,,,0.00,,2013-06-13 15:43:00,
2013-06-13 10:53:00,75.0,62.0,30.02,NNW,339,1.0,6.0,65,0.00,,,0.00,,2013-06-13 15:53:00,
2013-06-13 11:02:00,76.0,63.0,30.02,NW,309,1.0,5.0,64,0.00,,,0.00,,2013-06-13 16:02:00,
2013-06-13 11:12:00,76.0,62.0,30.02,WNW,290,2.0,7.0,63,0.00,,,0.00,,2013-06-13 16:12:00,
2013-06-13 11:22:00,77.0,63.0,30.03,NNW,333,1.0,3.0,63,0.00,,,0.00,,2013-06-13 16:22:00,
2013-06-13 11:33:00,77.0,63.0,30.03,NNW,333,1.0,3.0,63,0.00,,,0.00,,2013-06-13 16:33:00,
2013-06-13 11:43:00,78.0,63.0,30.03,NW,308,2.0,6.0,61,0.00,,,0.00,,2013-06-13 16:43:00,
2013-06-13 11:53:00,77.0,62.0,30.03,North,0,0.0,6.0,60,0.00,,,0.00,,2013-06-13 16:53:00,
2013-06-13 12:02:00,78.0,64.0,30.03,NW,320,1.0,6.0,63,0.00,,,0.00,,2013-06-13 17:02:00,
2013-06-13 12:11:00,79.0,64.0,30.03,WNW,299,2.0,7.0,60,0.00,,,0.00,,2013-06-13 17:11:00,
2013-06-13 12:24:00,78.0,61.0,30.03,WNW,283,5.0,7.0,56,0.00,,,0.00,,2013-06-13 17:24:00,
2013-06-13 12:33:00,79.0,63.0,30.03,NW,307,2.0,6.0,59,0.00,,,0.00,,2013-06-13 17:33:00,
2013-06-13 12:43:00,79.0,61.0,30.03,NW,316,2.0,7.0,55,0.00,,,0.00,,2013-06-13 17:43:00,
2013-06-13 12:53:00,80.0,62.0,30.03,East,86,2.0,6.0,54,0.00,,,0.00,,2013-06-13 17:53:00,
2013-06-13 13:02:00,80.0,62.0,30.03,NW,315,2.0,5.0,55,0.00,,,0.00,,2013-06-13 18:02:00,
2013-06-13 13:11:00,80.0,62.0,30.03,NW,308,2.0,5.0,54,0.00,,,0.00,,2013-06-13 18:11:00,
2013-06-13 13:22:00,79.0,61.0,30.03,WNW,289,3.0,6.0,55,0.00,,,0.00,,2013-06-13 18:22:00,
2013-06-13 13:33:00,81.0,63.0,30.03,WNW,296,1.0,6.0,54,0.00,,,0.00,,2013-06-13 18:33:00,
2013-06-13 13:43:00,80.0,61.0,30.03,West,264,4.0,7.0,53,0.00,,,0.00,,2013-06-13 18:43:00,
2013-06-13 13:52:00,80.0,60.0,30.02,West,279,2.0,6.0,50,0.00,,,0.00,,2013-06-13 18:52:00,
2013-06-13 14:01:00,81.0,61.0,30.02,WNW,297,2.0,6.0,50,0.00,,,0.00,,2013-06-13 19:01:00,
2013-06-13 14:11:00,82.0,62.0,30.01,West,265,1.0,7.0,51,0.00,,,0.00,,2013-06-13 19:11:00,
2013-06-13 14:22:00,82.0,60.0,30.01,North,359,1.0,7.0,47,0.00,,,0.00,,2013-06-13 19:22:00,
2013-06-13 14:33:00,83.0,61.0,30.01,North,0,0.0,6.0,47,0.00,,,0.00,,2013-06-13 19:33:00,
2013-06-13 14:43:00,83.0,64.0,30.00,North,0,0.0,7.0,52,0.00,,,0.00,,2013-06-13 19:43:00,
2013-06-13 14:53:00,84.0,61.0,30.00,ENE,74,1.0,4.0,46,0.00,,,0.00,,2013-06-13 19:53:00,
2013-06-13 15:01:00,83.0,61.0,30.00,SSW,195,1.0,4.0,48,0.00,,,0.00,,2013-06-13 20:01:00,
2013-06-13 15:11:00,83.0,61.0,30.00,SSW,195,1.0,4.0,48,0.00,,,0.00,,2013-06-13 20:11:00,
2013-06-13 15:22:00,83.0,61.0,29.99,West,279,2.0,6.0,48,0.00,,,0.00,,2013-06-13 20:22:00,
2013-06-13 15:33:00,83.0,61.0,29.99,West,279,2.0,6.0,48,0.00,,,0.00,,2013-06-13 20:33:00,
2013-06-13 15:44:00,84.0,58.0,29.99,West,275,4.0,6.0,42,0.00,,,0.00,,2013-06-13 20:44:00,
2013-06-13 15:53:00,83.0,59.0,29.99,North,0,0.0,6.0,44,0.00,,,0.00,,2013-06-13 20:53:00,
2013-06-13 16:02:00,83.0,59.0,29.99,North,0,0.0,6.0,44,0.00,,,0.00,,2013-06-13 21:02:00,
2013-06-13 16:11:00,83.0,59.0,29.99,North,0,0.0,6.0,44,0.00,,,0.00,,2013-06-13 21:11:00,
2013-06-13 16:22:00,83.0,59.0,29.99,North,0,0.0,6.0,44,0.00,,,0.00,,2013-06-13 21:22:00,
2013-06-13 16:34:00,83.0,60.0,29.99,South,170,4.0,9.0,46,0.00,,,0.00,,2013-06-13 21:34:00,
2013-06-13 16:43:00,83.0,61.0,30.00,WSW,240,4.0,6.0,47,0.00,,,0.00,,2013-06-13 21:43:00,
2013-06-13 16:52:00,82.0,61.0,30.00,WSW,244,4.0,9.0,50,0.00,,,0.00,,2013-06-13 21:52:00,
2013-06-13 17:02:00,81.0,59.0,30.01,WSW,237,5.0,9.0,48,0.00,,,0.00,,2013-06-13 22:02:00,
2013-06-13 17:11:00,80.0,59.0,30.01,WSW,240,4.0,8.0,49,0.00,,,0.00,,2013-06-13 22:11:00,
2013-06-13 17:22:00,81.0,59.0,30.02,WSW,251,4.0,8.0,48,0.00,,,0.00,,2013-06-13 22:22:00,
2013-06-13 17:33:00,82.0,60.0,30.01,WSW,253,6.0,13.0,47,0.00,,,0.00,,2013-06-13 22:33:00,
2013-06-13 17:43:00,82.0,60.0,30.02,West,265,5.0,12.0,47,0.00,,,0.00,,2013-06-13 22:43:00,
2013-06-13 17:52:00,82.0,59.0,30.02,West,263,5.0,12.0,46,0.00,,,0.00,,2013-06-13 22:52:00,
2013-06-13 18:02:00,82.0,60.0,30.02,West,263,4.0,12.0,47,0.00,,,0.00,,2013-06-13 23:02:00,
2013-06-13 18:11:00,82.0,58.0,30.02,West,275,7.0,14.0,44,0.00,,,0.00,,2013-06-13 23:11:00,
2013-06-13 18:22:00,81.0,59.0,30.02,West,263,4.0,12.0,48,0.00,,,0.00,,2013-06-13 23:22:00,
2013-06-13 18:32:00,81.0,58.0,30.02,West,259,4.0,9.0,46,0.00,,,0.00,,2013-06-13 23:32:00,
2013-06-13 18:43:00,81.0,57.0,30.01,West,271,4.0,9.0,44,0.00,,,0.00,,2013-06-13 23:43:00,
2013-06-13 18:52:00,81.0,58.0,30.01,WNW,286,3.0,6.0,46,0.00,,,0.00,,2013-06-13 23:52:00,
2013-06-13 19:01:00,81.0,58.0,30.01,WNW,286,3.0,6.0,46,0.00,,,0.00,,2013-06-14 00:01:00,
2013-06-13 19:12:00,80.0,58.0,30.01,West,277,3.0,6.0,47,0.00,,,0.00,,2013-06-14 00:12:00,
2013-06-13 19:22:00,80.0,58.0,30.01,West,266,1.0,4.0,47,0.00,,,0.00,,2013-06-14 00:22:00,
2013-06-13 19:34:00,80.0,58.0,30.01,West,266,1.0,4.0,47,0.00,,,0.00,,2013-06-14 00:34:00,
2013-06-13 19:43:00,80.0,59.0,30.00,North,0,0.0,2.0,48,0.00,,,0.00,,2013-06-14 00:43:00,
2013-06-13 19:53:00,80.0,59.0,29.99,North,0,0.0,0.0,49,0.00,,,0.00,,2013-06-14 00:53:00,
2013-06-13 20:01:00,78.0,61.0,29.99,North,0,0.0,0.0,55,0.00,,,0.00,,2013-06-14 01:01:00,
2013-06-13 20:11:00,77.0,61.0,29.99,North,0,0.0,0.0,57,0.00,,,0.00,,2013-06-14 01:11:00,
2013-06-13 20:22:00,75.0,61.0,29.98,North,0,0.0,0.0,61,0.00,,,0.00,,2013-06-14 01:22:00,
2013-06-13 20:32:00,74.0,63.0,29.98,North,0,0.0,0.0,68,0.00,,,0.00,,2013-06-14 01:32:00,
2013-06-13 20:43:00,72.0,62.0,29.98,North,0,0.0,0.0,70,0.00,,,0.00,,2013-06-14 01:43:00,
2013-06-13 21:32:00,69.0,61.0,29.96,North,0,0.0,1.0,75,0.00,,,0.00,,2013-06-14 02:32:00,
2013-06-13 21:43:00,68.0,61.0,29.96,North,0,0.0,0.0,78,0.00,,,0.00,,2013-06-14 02:43:00,
2013-06-13 21:52:00,68.0,61.0,29.96,North,0,0.0,0.0,78,0.00,,,0.00,,2013-06-14 02:52:00,
2013-06-13 22:02:00,68.0,61.0,29.96,North,0,0.0,0.0,77,0.00,,,0.00,,2013-06-14 03:02:00,
2013-06-13 22:12:00,70.0,61.0,29.96,North,0,0.0,2.0,72,0.00,,,0.00,,2013-06-14 03:12:00,
2013-06-13 22:22:00,71.0,59.0,29.97,North,0,0.0,2.0,67,0.00,,,0.00,,2013-06-14 03:22:00,
2013-06-13 22:34:00,71.0,60.0,29.98,North,0,0.0,0.0,68,0.00,,,0.00,,2013-06-14 03:34:00,
2013-06-13 22:43:00,70.0,59.0,29.97,North,0,0.0,0.0,68,0.00,,,0.00,,2013-06-14 03:43:00,
2013-06-13 22:52:00,70.0,59.0,29.97,North,0,0.0,0.0,68,0.00,,,0.00,,2013-06-14 03:52:00,
2013-06-13 23:01:00,69.0,58.0,29.98,North,0,0.0,0.0,68,0.00,,,0.00,,2013-06-14 04:01:00,
2013-06-13 23:12:00,70.0,58.0,29.98,North,0,0.0,2.0,66,0.00,,,0.00,,2013-06-14 04:12:00,
2013-06-13 23:22:00,70.0,57.0,29.98,North,0,0.0,2.0,64,0.00,,,0.00,,2013-06-14 04:22:00,
2013-06-13 23:33:00,70.0,58.0,29.98,North,0,0.0,1.0,65,0.00,,,0.00,,2013-06-14 04:33:00,
2013-06-13 23:43:00,70.0,58.0,29.98,North,0,0.0,1.0,65,0.00,,,0.00,,2013-06-14 04:43:00,
2013-06-13 23:53:00,69.0,57.0,30.00,North,0,0.0,0.0,66,0.00,,,0.00,,2013-06-14 04:53:00,